• In Uzbekistan
  • List of Countries
  • For 7 days
  • Water Temperature
  • Weather Map
  • Weather Widgets
  • user-avatar
    Login

    Hourly Weather Kaprun

    Today, 30 March, Monday

    Time Temperature Precipitation Wind Pressure Humidity
    00:00 -7°C° 0.6 mm 2 mps 593 mmHg 96%
    01:00 -7°C° 0 mm 2 mps 593 mmHg 97%
    02:00 -8°C° 0.6 mm 2 mps 593 mmHg 97%
    03:00 -8°C° 0.6 mm 2 mps 593 mmHg 96%
    04:00 -8°C° 0.6 mm 2 mps 592 mmHg 96%
    05:00 -9°C° 0.6 mm 2 mps 593 mmHg 96%
    06:00 -9°C° 0.6 mm 2 mps 593 mmHg 95%
    07:00 -9°C° 0.6 mm 2 mps 593 mmHg 95%
    08:00 -8°C° 0.4 mm 2 mps 593 mmHg 94%
    09:00 -8°C° 0.4 mm 2 mps 593 mmHg 93%
    10:00 -8°C° 0.4 mm 2 mps 594 mmHg 92%
    11:00 -8°C° 0.4 mm 3 mps 594 mmHg 92%
    12:00 -8°C° 0.4 mm 3 mps 593 mmHg 91%
    13:00 -8°C° 0.4 mm 3 mps 593 mmHg 91%
    14:00 -8°C° 0.5 mm 3 mps 593 mmHg 91%
    15:00 -8°C° 0.5 mm 3 mps 593 mmHg 91%
    16:00 -8°C° 0.5 mm 2 mps 593 mmHg 91%
    17:00 -9°C° 0.3 mm 2 mps 593 mmHg 93%
    18:00 -10°C° 0.3 mm 2 mps 592 mmHg 95%
    19:00 -12°C° 0.3 mm 2 mps 592 mmHg 96%
    20:00 -13°C° 0 mm 2 mps 592 mmHg 96%
    21:00 -14°C° 0 mm 2 mps 592 mmHg 96%
    22:00 -15°C° 0 mm 2 mps 592 mmHg 96%
    23:00 -16°C° 0 mm 2 mps 592 mmHg 92%

    Tomorrow, 31 March, Tuesday

    Time Temperature Precipitation Wind Pressure Humidity
    00:00 -17°C° 0 mm 2 mps 592 mmHg 88%
    01:00 -17°C° 0 mm 2 mps 591 mmHg 85%
    02:00 -18°C° 0 mm 2 mps 591 mmHg 83%
    03:00 -18°C° 0 mm 2 mps 591 mmHg 80%
    04:00 -18°C° 0 mm 2 mps 591 mmHg 78%
    05:00 -17°C° 0 mm 2 mps 592 mmHg 78%
    06:00 -17°C° 0 mm 2 mps 592 mmHg 78%
    07:00 -16°C° 0 mm 2 mps 592 mmHg 78%
    08:00 -14°C° 0 mm 2 mps 593 mmHg 76%
    09:00 -12°C° 0 mm 2 mps 594 mmHg 74%
    10:00 -9°C° 0 mm 2 mps 595 mmHg 72%
    11:00 -8°C° 0 mm 2 mps 595 mmHg 72%
    12:00 -8°C° 0 mm 2 mps 595 mmHg 73%
    13:00 -8°C° 0 mm 3 mps 595 mmHg 73%
    14:00 -8°C° 0.1 mm 3 mps 595 mmHg 75%
    15:00 -8°C° 0.1 mm 3 mps 595 mmHg 76%
    16:00 -9°C° 0.1 mm 3 mps 594 mmHg 78%
    17:00 -9°C° 0.1 mm 2 mps 594 mmHg 83%
    18:00 -12°C° 0.1 mm 2 mps 593 mmHg 89%
    19:00 -14°C° 0.1 mm 2 mps 593 mmHg 94%
    20:00 -13°C° 0 mm 1 mps 593 mmHg 94%
    21:00 -13°C° 0 mm 1 mps 593 mmHg 94%
    22:00 -14°C° 0 mm 1 mps 593 mmHg 94%
    23:00 -14°C° 0 mm 1 mps 593 mmHg 89%

    Day after tomorrow, 1 April, Wednesday

    Time Temperature Precipitation Wind Pressure Humidity
    00:00 -16°C° 0 mm 2 mps 593 mmHg 84%
    01:00 -17°C° 0 mm 2 mps 593 mmHg 78%
    02:00 -17°C° 0 mm 2 mps 592 mmHg 71%
    03:00 -17°C° 0 mm 2 mps 592 mmHg 64%
    04:00 -15°C° 0 mm 1 mps 592 mmHg 57%
    05:00 -13°C° 0 mm 1 mps 592 mmHg 55%
    06:00 -12°C° 0 mm 1 mps 593 mmHg 54%
    07:00 -11°C° 0 mm 1 mps 593 mmHg 53%
    08:00 -9°C° 0 mm 1 mps 594 mmHg 53%
    09:00 -6°C° 0 mm 1 mps 595 mmHg 53%
    10:00 -2°C° 0 mm 1 mps 596 mmHg 52%
    11:00 -2°C° 0 mm 1 mps 596 mmHg 57%
    12:00 -1°C° 0 mm 1 mps 596 mmHg 62%
    13:00 0°C° 0 mm 1 mps 596 mmHg 67%
    14:00 0°C° 0 mm 1 mps 595 mmHg 68%
    15:00 0°C° 0 mm 1 mps 595 mmHg 70%
    16:00 0°C° 0 mm 1 mps 594 mmHg 72%
    17:00 -3°C° 0 mm 1 mps 593 mmHg 77%
    18:00 -6°C° 0 mm 1 mps 592 mmHg 82%
    19:00 -8°C° 0 mm 1 mps 591 mmHg 88%
    20:00 -8°C° 0 mm 1 mps 591 mmHg 82%
    21:00 -9°C° 0 mm 1 mps 591 mmHg 77%
    22:00 -9°C° 0 mm 1 mps 591 mmHg 72%
    23:00 -9°C° 0 mm 1 mps 591 mmHg 70%

    2 April, Thursday

    Time Temperature Precipitation Wind Pressure Humidity
    00:00 -9°C° 0 mm 1 mps 591 mmHg 68%
    01:00 -10°C° 0 mm 1 mps 591 mmHg 66%
    02:00 -10°C° 0 mm 1 mps 591 mmHg 65%
    03:00 -10°C° 0 mm 1 mps 590 mmHg 64%
    04:00 -10°C° 0 mm 1 mps 590 mmHg 64%
    05:00 -9°C° 0 mm 1 mps 590 mmHg 64%
    06:00 -8°C° 0 mm 1 mps 591 mmHg 65%
    07:00 -8°C° 0 mm 1 mps 591 mmHg 66%
    08:00 -4°C° 0 mm 1 mps 591 mmHg 65%
    09:00 -2°C° 0 mm 1 mps 592 mmHg 64%
    10:00 0°C° 0 mm 1 mps 593 mmHg 63%
    11:00 0°C° 0 mm 1 mps 593 mmHg 63%
    12:00 +1°C° 0 mm 1 mps 593 mmHg 63%
    13:00 +1°C° 0 mm 0 mps 593 mmHg 63%
    14:00 +1°C° 0 mm 0 mps 592 mmHg 65%
    15:00 +1°C° 0 mm 1 mps 592 mmHg 68%
    16:00 +1°C° 0 mm 1 mps 591 mmHg 70%
    17:00 -1°C° 0 mm 1 mps 590 mmHg 76%
    18:00 -2°C° 0 mm 1 mps 590 mmHg 83%
    19:00 -5°C° 0 mm 0 mps 589 mmHg 90%
    20:00 -6°C° 0 mm 1 mps 589 mmHg 90%
    21:00 -6°C° 0 mm 1 mps 589 mmHg 90%
    22:00 -6°C° 0 mm 1 mps 590 mmHg 91%
    23:00 -6°C° 0 mm 1 mps 590 mmHg 90%

    3 April, Friday

    Time Temperature Precipitation Wind Pressure Humidity
    00:00 -6°C° 0 mm 1 mps 590 mmHg 90%
    01:00 -7°C° 0 mm 1 mps 590 mmHg 90%
    02:00 -7°C° 0 mm 1 mps 589 mmHg 90%
    03:00 -7°C° 0 mm 1 mps 589 mmHg 90%
    04:00 -7°C° 0 mm 1 mps 589 mmHg 90%
    05:00 -7°C° 0 mm 1 mps 590 mmHg 91%
    06:00 -6°C° 0 mm 1 mps 591 mmHg 92%
    07:00 -6°C° 0 mm 1 mps 591 mmHg 93%
    08:00 -3°C° 0.1 mm 1 mps 592 mmHg 91%
    09:00 -4°C° 0.1 mm 2 mps 592 mmHg 88%
    10:00 -3°C° 0.1 mm 2 mps 593 mmHg 85%
    11:00 -3°C° 0.1 mm 2 mps 593 mmHg 83%
    12:00 -2°C° 0.1 mm 2 mps 593 mmHg 82%
    13:00 -2°C° 0.1 mm 2 mps 594 mmHg 80%
    14:00 -2°C° 0.1 mm 2 mps 594 mmHg 80%
    15:00 -2°C° 0.1 mm 2 mps 594 mmHg 81%
    16:00 -2°C° 0.1 mm 2 mps 594 mmHg 81%
    17:00 -4°C° 0 mm 2 mps 593 mmHg 86%
    18:00 -5°C° 0 mm 2 mps 593 mmHg 90%
    19:00 -4°C° 0 mm 1 mps 593 mmHg 94%
    20:00 -6°C° 0 mm 1 mps 594 mmHg 94%
    21:00 -6°C° 0 mm 1 mps 595 mmHg 94%
    22:00 -6°C° 0 mm 1 mps 595 mmHg 94%
    23:00 -7°C° 0 mm 1 mps 595 mmHg 93%

    4 April, Saturday

    Time Temperature Precipitation Wind Pressure Humidity
    00:00 -7°C° 0 mm 1 mps 595 mmHg 92%
    01:00 -7°C° 0 mm 1 mps 596 mmHg 91%
    02:00 -7°C° 0 mm 1 mps 596 mmHg 86%
    03:00 -7°C° 0 mm 1 mps 596 mmHg 81%
    04:00 -8°C° 0 mm 1 mps 596 mmHg 76%
    05:00 -7°C° 0 mm 1 mps 596 mmHg 72%
    06:00 -7°C° 0 mm 1 mps 597 mmHg 68%
    07:00 -6°C° 0 mm 1 mps 597 mmHg 65%
    08:00 -3°C° 0 mm 1 mps 598 mmHg 62%
    09:00 -1°C° 0 mm 1 mps 599 mmHg 60%
    10:00 +1°C° 0 mm 1 mps 600 mmHg 57%
    11:00 +2°C° 0 mm 1 mps 600 mmHg 56%
    12:00 +3°C° 0 mm 1 mps 601 mmHg 55%
    13:00 +4°C° 0 mm 1 mps 601 mmHg 53%
    14:00 +4°C° 0 mm 1 mps 601 mmHg 55%
    15:00 +4°C° 0 mm 1 mps 601 mmHg 57%
    16:00 +4°C° 0 mm 1 mps 601 mmHg 59%
    17:00 +2°C° 0 mm 1 mps 600 mmHg 68%
    18:00 0°C° 0 mm 1 mps 599 mmHg 76%
    19:00 -4°C° 0 mm 2 mps 599 mmHg 84%
    20:00 -4°C° 0 mm 2 mps 599 mmHg 86%
    21:00 -4°C° 0 mm 2 mps 600 mmHg 87%
    22:00 -4°C° 0 mm 2 mps 600 mmHg 88%
    23:00 -4°C° 0 mm 2 mps 600 mmHg 88%
    Show more